www.pogodaiklimat.ru

Погода и климат >> Архив погоды >> Украина >> Свитязь


ПОГОДА в Свитязи

  • Прогноз погоды в Свитязи
  • Монитор погоды в Свитязи

АРХИВ ПОГОДЫ в Свитязи

Время (UTC), дата Ветер
(напр.,м/с)
 
Видим.   Явления Облачность Т
(С)
Тd
(С)
f
(%)
Тe
(С)
Тes
(С)
Комфортность P
(гПа)
Po
(гПа)
Тmin
(С)
Tmax
(С)
R
(мм)
R24
(мм)
S
(см)
15 18.08 Ю 2 24 км 10/3 600 м
[Sc Ci fib]
+27.2 +10.8 36 +28 +28 жарко 1012.0 992.6
18 18.08 ЮВ 1 19 км 4/3 600 м
[Sc diur, vesp Ac und]
+22.8 +14.6 60 +26 +26 жарко 1012.0 992.3 +27.6
21 18.08 Ю 1 15 км ясно +19.6 +14.8 74 +23 +23 комфорт 1013.0 993.1
00 19.08 ЮВ 1 13 км ясно +18.3 +15.2 82 +20 +20 1013.0 993.0
03 19.08 ЮВ 1 11 км ясно +16.6 +14.8 89 +17 +17 1014.0 993.8
06 19.08 Ю 2 14 км ясно +20.4 +15.8 75 +24 +28 комфорт 1015.0 995.1 +16.4
09 19.08 Ю 2 21 км 4/0
[Ci fib]
+28.4 +17.0 50 +32 +41 душно 1014.0 994.6
12 19.08 ЮЗ 3 24 км 4/4 600 м
[Cu med, cong]
+31.7 +16.4 40 +35 +41 очень
душно
1015.0 995.8
15 19.08 ЮЗ 2 21 км 8/4 600 м
[Cu hum Ci fib]
+32.3 +17.0 40 +36 +36 очень
душно
1015.0 995.9
18 19.08 ЮВ 1 13 км 6/6 600 м
[Sc diur, vesp]
+26.8 +19.9 66 +33 +33 очень
душно
1016.0 996.5 +33.1
21 19.08 Ю 2 13 км зарница 8/8 600 м
[Cb calv]
+24.1 +18.0 69 +28 +28 душно 1017.0 997.3
00 20.08 СЗ 1 12 км 10/10 600 м
[Sc]
+22.2 +18.0 77 +27 +27 душно 1018.0 998.2
03 20.08 СВ 2 11 км в посл. час ливневой дождь 8/8 600 м
[Cb cap]
+19.8 +17.6 87 +23 +23 комфорт 1019.0 999.0
06 20.08 С 1 14 км {ливн. осадки} 10/4 600 м
[Sc Ac und Ci fib]
+21.0 +17.8 82 +26 +26 душно 1021.0 1001.0 +19.4 0.0
09 20.08 З 2 19 км 8/6 600 м
[Sc Ac und]
+23.5 +18.4 73 +28 +28 душно 1021.0 1001.2
12 20.08 СЗ 1 21 км 10/3 600 м
[Cu Sc Ac und Ci fib]
+26.9 +20.0 66 +33 +33 очень
душно
1022.2 1002.7
15 20.08 СЗ 1 18 км 10/3 600 м
[Sc Ac As Cc]
+26.3 +18.9 64 +31 +31 душно 1021.0 1001.4
18 20.08 СВ 1 14 км 10/0
[Ci fib]
+23.1 +19.0 78 +29 +29 очень
душно
1022.0 1002.2 +27.3
21 20.08 В 2 14 км 10/0
[Ac und Ci fib]
+21.3 +18.3 83 +26 +26 душно 1021.0 1001.0
00 21.08 В 2 13 км 10/0
[As op]
+20.5 +18.3 87 +25 +25 комфорт 1020.0 1000.0
03 21.08 В 1 12 км 4/0
[Ac und]
+18.6 +17.4 93 +21 +21 комфорт 1018.0 997.9
06 21.08 Ю 2 14 км 10/0
[Ci fib]
+21.3 +17.3 78 +25 +25 комфорт 1018.0 998.1 +15.3
09 21.08 З 5 13 км 3/1 600 м
[Cu hum Ac trans]
+26.7 +20.1 67 +33 +37 очень
душно
1019.0 999.5
12 21.08 З 5 15 км 9/8 600 м
[Cu Sc Ac trans]
+24.1 +18.3 70 +29 +29 душно 1021.0 1001.2
15 21.08 З 5 14 км 10/10 600 м
[Sc]
+17.9 +15.2 84 +17 +17 1024.0 1003.7
18 21.08 СЗ 2 13 км 10/10 600 м
[Sc]
+16.8 +13.5 81 +17 +17 1027.0 1006.6 +27.6
21 21.08 СЗ 2 12 км 10/0
[Ci fib]
+15.1 +12.4 84 +15 +15 1028.0 1007.4
00 22.08 СЗ 1 13 км 10/0
[Ac und Ci fib]
+14.6 +12.1 85 +15 +15 1028.0 1007.4
03 22.08 СЗ 1 12 км 6/6 600 м
[Cb cap]
+14.4 +12.4 88 +15 +15 1029.0 1008.4
06 22.08 С 1 14 км ясно +15.4 +12.5 83 +16 +20 1030.0 1009.4 +13.5
09 22.08 СВ 3 18 км 10/4 600 м
[Cu hum Ci fib]
+20.4 +12.1 59 +23 +23 комфорт 1030.0 1009.8
12 22.08 СЗ 1 19 км 10/3 600 м
[Cu hum Ac und Ci fib]
+22.7 +12.3 52 +25 +25 комфорт 1029.0 1008.9
15 22.08 СВ 1 19 км 10/0
[Ac As]
+22.1 +11.2 50 +24 +24 комфорт 1028.0 1007.9
18 22.08 СВ 1 16 км 10/0
[Cc]
+19.3 +12.1 63 +22 +22 комфорт 1028.0 1007.7 +23.1
21 22.08 В 1 15 км 8/8 600 м
[Sc]
+17.5 +12.2 71 +19 +19 1029.0 1008.6
00 23.08 В 1 14 км 10/6 600 м
[Sc Ac und]
+15.8 +11.4 75 +17 +17 1029.0 1008.5
03 23.08 СВ 1 11 км 6/4 600 м
[Sc Ac trans]
+13.8 +11.8 88 +14 +14 1029.0 1008.3
06 23.08 СВ 1 15 км 3/3 600 м
[Cu hum]
+16.9 +12.0 73 +18 +21 1030.0 1009.5 +13.0
09 23.08 штиль 0 21 км 3/3 600 м
[Cu hum]
+22.3 +11.7 51 +25 +35 комфорт 1029.0 1008.9
12 23.08 В 1 22 км 3/3 600 м
[Cu hum]
+24.2 +11.2 44 +26 +34 жарко 1028.0 1008.1
15 23.08 В 1 18 км ясно +24.9 +10.7 41 +26 +29 жарко 1027.0 1007.1
18 23.08 В 1 14 км ясно +20.2 +12.9 63 +23 +23 комфорт 1027.0 1006.8 +25.6
21 23.08 В 1 13 км ясно +16.4 +11.5 73 +17 +17 1028.0 1007.5
00 24.08 штиль 0 12 км ясно +14.3 +11.1 81 +14 +14 1028.0 1007.4
03 24.08 штиль 0 11 км ясно +9.4 +7.8 90 +9 +9 1028.0 1007.0
06 24.08 штиль 0 15 км ясно +16.4 +11.8 74 +16 +21 1028.0 1007.5 +8.8
09 24.08 В 1 10 км ясно +23.1 +11.2 47 +25 +38 комфорт 1027.0 1007.0
12 24.08 С 1 21 км ясно +26.0 +11.7 41 +27 +40 жарко 1026.0 1006.2
15 24.08 СВ 2 20 км 3/3 600 м
[Sc]
+25.8 +11.5 41 +27 +29 жарко 1025.0 1005.2
18 24.08 СВ 1 16 км 3/3 600 м
[Sc diur, vesp]
+21.1 +14.0 64 +24 +24 комфорт 1026.0 1005.9 +26.0
21 24.08 В 2 10 км ясно +17.4 +12.7 74 +18 +18 1026.0 1005.6
00 25.08 В 1 13 км ясно +14.3 +11.6 84 +15 +15 1026.0 1005.4
03 25.08 В 1 10 км ясно +13.4 +11.1 86 +14 +14 1026.0 1005.3
06 25.08 В 2 10 км ясно +17.2 +11.9 71 +18 +21 1026.0 1005.6 +12.2
09 25.08 В 3 10 км ясно +24.5 +9.6 39 +25 +35 комфорт 1026.0 1006.1
12 25.08 В 3 10 км ясно +27.3 +10.9 36 +28 +37 жарко 1025.0 1005.3

 

Местоположение метеостанции Свитязь (Волынская область, Украина): широта 51.45 долгота 24.57 высота над уровнем моря 171 м.

В архиве по умолчанию представлена погода в Свитязи за последнюю неделю. Архивные данные за месяц целиком и за предыдущие месяцы, начиная с января 2011 года, Вы можете получить, выбрав интересующий диапазон дат из раскрывающегося списка и нажав кнопку "Ввод!".


*Определитесь, кто Вы:
робот инопланетянин человек

Внимание! Время в таблицах - всемирное. Для получения местного времени необходимо прибавить поправку, которая равна 2 ч.

Смотрите также архив погоды в соседних городах и на ближайших метеорологических станциях:

Погода в Ковеле (Волынская область, Украина) (27 км)
Погода в Любешове (Волынская область, Украина) (54 км)
Погода в Маневичах (Волынская область, Украина) (69 км)
Погода в Владимире-Волынском (Волынская область, Украина) (71 км)
Погода в Влодаве (Польша) (73 км)
Погода в Дрогичине (Брестская область, Беларусь) (91 км)
Погода в Тересполе (Польша) (95 км)
Погода в Бресте (Брестская область, Беларусь) (96 км)
Погода в Луцке (Волынская область, Украина) (106 км)
Погода в Пружанах (Брестская область, Беларусь) (122 км)

Пояснения к столбцам:

Ветер - указаны скорость ветра в м/с - средняя за 10 мин, порывы в срок и между сроками (в фигурных скобках) и направление, откуда дует ветер: С - северный, СВ - северо-восточный, В - восточный, ЮВ - юго-восточный, Ю - южный, ЮЗ - юго-западный, З - западный, СЗ - северо-западный.
Видимость - горизонтальная дальность видимости в метрах или километрах. При видимости от 1 до 10 км при отсутствии осадков обычно наблюдается дымка, при ухудшении видимости до 1 км и менее - туман. В сухую погоду видимость может ухудшаться дымом, пылью или мглою.
Явления - указаны атмосферные явления, наблюдавшиеся в срок или в последний час перед сроком; фигурными скобками обозначены явления, наблюдавшиеся между сроками (за 1-3 часа до срока); квадратными скобками обозначены град или гололедные отложения с указанием их диаметра в мм.
Облачность - указаны через наклонную черту общая и нижняя облачность в баллах и высота нижней границы облаков в метрах; квадратными скобками обозначены формы облаков: Ci - перистые, Cs - перисто-слоистые, Cc - перисто-кучевые, Ac - высококучевые, As - высокослоистые, Sc - слоисто-кучевые, Ns - слоисто-дождевые, Cu - кучевые, Cb - кучево-дождевые. Подробнее классификацию облаков см. в Атласе облаков (PDF).
T - Температура воздуха - температура, измеренная на высоте 2 м над землей.
Td - Температура точки росы - температура, при понижении до которой содержащийся в воздухе водяной пар достигнет насыщения.
f - Относительная влажность воздуха - влажноcть воздуха, измеренная на высоте 2 м над землей.
Te - Эффективная температура - температура, которую ощущает одетый по сезону человек в тени. Характеристика душности погоды. При расчете учитывается влияние влажности воздуха и скорости ветра на теплоощущения человека.
Tes - Эффективная температура на солнце - температура, которую ощущает человек, с поправкой на солнечный нагрев. Характеристика знойности погоды. Зависит от высоты солнца над горизонтом, облачности и скорости ветра. Ночью, в пасмурную погоду, а также при ветре 12 м/с и более поправка равна нулю.
P - Атмосферное давление - приведенное к уровню моря атмосферное давление.
Po - Атмосферное давление - измеренное на уровне метеостанции атмосферное давление.
Tmin - Минимальная температура - минимум температуры воздуха на высоте 2 м над землей.
Tmax - Максимальная температура - максимум температуры воздуха на высоте 2 м над землей.
R - Количество осадков - Количество выпавших осадков за период времени, мм. При наведении курсора мыши на число - период времени, за который выпало указанное количество осадков.
R24 - Количество осадков - Количество выпавших осадков за 24 часа, мм.
S - Снежный покров - Высота снежного покрова, см. При наведении курсора мыши на число - состояние снежного покрова и степень покрытия местности в баллах.